Time,TemperatureF,DewpointF,PressureIn,WindDirection,WindDirectionDegrees,WindSpeedMPH,WindSpeedGustMPH,Humidity,HourlyPrecipIn,Conditions,Clouds,dailyrainin,SolarRadiationWatts/m^2,SoftwareType,DateUTC
2013-04-21 00:01:00,41.7,27.7,30.41,NE,49,3.0,9.0,57,0.00,,,0.00,0.0,meteohub,2013-04-21 04:01:00,
2013-04-21 00:02:00,41.7,27.7,30.41,NE,50,1.0,9.0,57,0.00,,,0.00,0.0,meteohub,2013-04-21 04:02:00,
2013-04-21 00:07:00,41.5,27.5,30.41,NE,56,2.0,9.0,57,0.00,,,0.00,0.0,meteohub,2013-04-21 04:07:00,
2013-04-21 00:08:00,41.5,27.5,30.41,ENE,63,4.0,9.0,57,0.00,,,0.00,0.0,meteohub,2013-04-21 04:08:00,
2013-04-21 00:13:00,41.5,27.9,30.41,ENE,68,3.0,7.0,58,0.00,,,0.00,0.0,meteohub,2013-04-21 04:13:00,
2013-04-21 00:19:00,41.4,27.7,30.41,ENE,75,5.0,8.0,58,0.00,,,0.00,0.0,meteohub,2013-04-21 04:19:00,
2013-04-21 00:24:00,41.4,27.7,30.41,NE,48,4.0,8.0,58,0.00,,,0.00,0.0,meteohub,2013-04-21 04:24:00,
2013-04-21 00:29:00,41.2,27.9,30.42,ENE,66,5.0,8.0,59,0.00,,,0.00,0.0,meteohub,2013-04-21 04:29:00,
2013-04-21 00:34:00,41.2,27.9,30.42,ENE,65,4.0,7.0,59,0.00,,,0.00,0.0,meteohub,2013-04-21 04:34:00,
2013-04-21 00:39:00,41.0,27.9,30.42,ENE,75,2.0,7.0,59,0.00,,,0.00,0.0,meteohub,2013-04-21 04:39:00,
2013-04-21 00:44:00,40.8,27.7,30.42,ENE,68,2.0,7.0,59,0.00,,,0.00,0.0,meteohub,2013-04-21 04:44:00,
2013-04-21 00:49:00,40.8,28.0,30.42,NE,48,3.0,7.0,60,0.00,,,0.00,0.0,meteohub,2013-04-21 04:49:00,
2013-04-21 00:54:00,40.6,27.9,30.42,NE,50,1.0,7.0,60,0.00,,,0.00,0.0,meteohub,2013-04-21 04:54:00,
2013-04-21 01:00:00,40.5,27.7,30.42,ENE,67,2.0,7.0,60,0.00,,,0.00,0.0,meteohub,2013-04-21 05:00:00,
2013-04-21 01:05:00,40.3,27.9,30.43,NE,53,1.0,7.0,61,0.00,,,0.00,0.0,meteohub,2013-04-21 05:05:00,
2013-04-21 01:10:00,40.3,27.9,30.43,East,93,2.0,5.0,61,0.00,,,0.00,0.0,meteohub,2013-04-21 05:10:00,
2013-04-21 01:15:00,40.1,27.7,30.43,ENE,67,4.0,8.0,61,0.00,,,0.00,0.0,meteohub,2013-04-21 05:15:00,
2013-04-21 01:20:00,39.9,28.0,30.43,NE,53,2.0,8.0,62,0.00,,,0.00,0.0,meteohub,2013-04-21 05:20:00,
2013-04-21 01:25:00,39.9,27.5,30.43,ENE,59,2.0,8.0,61,0.00,,,0.00,0.0,meteohub,2013-04-21 05:25:00,
2013-04-21 01:30:00,39.9,27.5,30.43,ENE,62,3.0,6.0,61,0.00,,,0.00,0.0,meteohub,2013-04-21 05:30:00,
2013-04-21 01:35:00,39.9,28.0,30.43,ENE,78,3.0,6.0,62,0.00,,,0.00,0.0,meteohub,2013-04-21 05:35:00,
2013-04-21 01:40:00,39.9,28.0,30.44,ENE,76,1.0,6.0,62,0.00,,,0.00,0.0,meteohub,2013-04-21 05:40:00,
2013-04-21 01:45:00,39.9,28.0,30.44,ENE,64,5.0,6.0,62,0.00,,,0.00,0.0,meteohub,2013-04-21 05:45:00,
2013-04-21 01:51:00,39.7,27.9,30.44,NNE,31,3.0,7.0,62,0.00,,,0.00,0.0,meteohub,2013-04-21 05:51:00,
2013-04-21 01:56:00,39.7,27.9,30.45,NE,56,1.0,7.0,62,0.00,,,0.00,0.0,meteohub,2013-04-21 05:56:00,
2013-04-21 02:01:00,39.7,28.2,30.44,ENE,61,1.0,7.0,63,0.00,,,0.00,0.0,meteohub,2013-04-21 06:01:00,
2013-04-21 02:06:00,39.6,28.0,30.45,NE,56,0.0,6.0,63,0.00,,,0.00,0.0,meteohub,2013-04-21 06:06:00,
2013-04-21 02:11:00,39.6,28.0,30.45,ENE,73,2.0,7.0,63,0.00,,,0.00,0.0,meteohub,2013-04-21 06:11:00,
2013-04-21 02:16:00,39.6,28.4,30.45,ENE,74,5.0,7.0,64,0.00,,,0.00,0.0,meteohub,2013-04-21 06:16:00,
2013-04-21 02:21:00,39.4,28.2,30.45,East,79,4.0,7.0,64,0.00,,,0.00,0.0,meteohub,2013-04-21 06:21:00,
2013-04-21 02:26:00,39.2,28.4,30.45,ENE,70,3.0,6.0,65,0.00,,,0.00,0.0,meteohub,2013-04-21 06:26:00,
2013-04-21 02:31:00,39.2,28.4,30.45,NE,50,1.0,6.0,65,0.00,,,0.00,0.0,meteohub,2013-04-21 06:31:00,
2013-04-21 02:36:00,39.0,28.2,30.45,ENE,72,4.0,6.0,65,0.00,,,0.00,0.0,meteohub,2013-04-21 06:36:00,
2013-04-21 02:41:00,38.8,28.0,30.45,NE,40,1.0,6.0,65,0.00,,,0.00,0.0,meteohub,2013-04-21 06:41:00,
2013-04-21 02:47:00,38.8,28.4,30.45,ENE,70,2.0,7.0,66,0.00,,,0.00,0.0,meteohub,2013-04-21 06:47:00,
2013-04-21 02:52:00,38.8,28.4,30.45,ENE,60,3.0,7.0,66,0.00,,,0.00,0.0,meteohub,2013-04-21 06:52:00,
2013-04-21 02:57:00,38.7,28.2,30.45,East,101,2.0,7.0,66,0.00,,,0.00,0.0,meteohub,2013-04-21 06:57:00,
2013-04-21 03:02:00,38.7,28.2,30.45,SE,128,3.0,6.0,66,0.00,,,0.00,0.0,meteohub,2013-04-21 07:02:00,
2013-04-21 03:07:00,38.7,27.9,30.46,East,83,3.0,6.0,65,0.00,,,0.00,0.0,meteohub,2013-04-21 07:07:00,
2013-04-21 03:12:00,38.7,28.2,30.46,ENE,75,1.0,6.0,66,0.00,,,0.00,0.0,meteohub,2013-04-21 07:12:00,
2013-04-21 03:17:00,38.7,27.9,30.46,NE,50,1.0,7.0,65,0.00,,,0.00,0.0,meteohub,2013-04-21 07:17:00,
2013-04-21 03:22:00,38.7,28.2,30.45,ENE,75,1.0,8.0,66,0.00,,,0.00,0.0,meteohub,2013-04-21 07:22:00,
2013-04-21 03:27:00,38.7,28.2,30.45,ENE,57,5.0,8.0,66,0.00,,,0.00,0.0,meteohub,2013-04-21 07:27:00,
2013-04-21 03:32:00,38.5,28.0,30.45,East,79,1.0,8.0,66,0.00,,,0.00,0.0,meteohub,2013-04-21 07:32:00,
2013-04-21 03:37:00,38.5,28.0,30.45,NE,49,1.0,8.0,66,0.00,,,0.00,0.0,meteohub,2013-04-21 07:37:00,
2013-04-21 03:42:00,38.5,28.0,30.45,NE,42,3.0,8.0,66,0.00,,,0.00,0.0,meteohub,2013-04-21 07:42:00,
2013-04-21 03:47:00,38.5,28.0,30.46,NE,47,3.0,7.0,66,0.00,,,0.00,0.0,meteohub,2013-04-21 07:47:00,
2013-04-21 03:52:00,38.5,28.0,30.45,ENE,69,2.0,7.0,66,0.00,,,0.00,0.0,meteohub,2013-04-21 07:52:00,
2013-04-21 03:57:00,38.5,28.0,30.46,ESE,114,3.0,10.0,66,0.00,,,0.00,0.0,meteohub,2013-04-21 07:57:00,
2013-04-21 04:02:00,38.3,27.9,30.46,East,80,2.0,10.0,66,0.00,,,0.00,0.0,meteohub,2013-04-21 08:02:00,
2013-04-21 04:08:00,38.3,27.9,30.46,ENE,57,2.0,10.0,66,0.00,,,0.00,0.0,meteohub,2013-04-21 08:08:00,
2013-04-21 04:13:00,38.1,28.2,30.46,ESE,106,1.0,8.0,67,0.00,,,0.00,0.0,meteohub,2013-04-21 08:13:00,
2013-04-21 04:18:00,38.1,28.2,30.46,East,91,0.0,7.0,67,0.00,,,0.00,0.0,meteohub,2013-04-21 08:18:00,
2013-04-21 04:23:00,38.1,28.2,30.46,ENE,78,2.0,7.0,67,0.00,,,0.00,0.0,meteohub,2013-04-21 08:23:00,
2013-04-21 04:28:00,37.9,28.0,30.47,ENE,75,1.0,6.0,67,0.00,,,0.00,0.0,meteohub,2013-04-21 08:28:00,
2013-04-21 04:33:00,37.9,28.0,30.47,ENE,70,1.0,6.0,67,0.00,,,0.00,0.0,meteohub,2013-04-21 08:33:00,
2013-04-21 04:38:00,37.9,28.0,30.47,NE,53,1.0,6.0,67,0.00,,,0.00,0.0,meteohub,2013-04-21 08:38:00,
2013-04-21 04:43:00,37.9,28.4,30.47,East,83,2.0,6.0,68,0.00,,,0.00,0.0,meteohub,2013-04-21 08:43:00,
2013-04-21 04:48:00,37.8,28.2,30.47,East,82,5.0,5.0,68,0.00,,,0.00,0.0,meteohub,2013-04-21 08:48:00,
2013-04-21 04:53:00,37.8,28.2,30.47,ENE,73,3.0,7.0,68,0.00,,,0.00,0.0,meteohub,2013-04-21 08:53:00,
2013-04-21 04:58:00,37.6,28.0,30.47,NE,45,0.0,9.0,68,0.00,,,0.00,0.0,meteohub,2013-04-21 08:58:00,
2013-04-21 05:04:00,37.6,28.0,30.47,ESE,115,3.0,9.0,68,0.00,,,0.00,0.0,meteohub,2013-04-21 09:04:00,
2013-04-21 05:09:00,37.6,28.0,30.47,NE,44,1.0,7.0,68,0.00,,,0.00,0.0,meteohub,2013-04-21 09:09:00,
2013-04-21 05:14:00,37.6,28.0,30.47,East,80,3.0,7.0,68,0.00,,,0.00,0.0,meteohub,2013-04-21 09:14:00,
2013-04-21 05:19:00,37.4,27.9,30.48,ENE,78,3.0,7.0,68,0.00,,,0.00,0.0,meteohub,2013-04-21 09:19:00,
2013-04-21 05:24:00,37.2,27.7,30.48,East,86,0.0,7.0,68,0.00,,,0.00,0.0,meteohub,2013-04-21 09:24:00,
2013-04-21 05:29:00,37.2,28.0,30.48,ESE,112,3.0,6.0,69,0.00,,,0.00,0.0,meteohub,2013-04-21 09:29:00,
2013-04-21 05:34:00,37.0,27.5,30.48,ENE,70,4.0,5.0,68,0.00,,,0.00,0.0,meteohub,2013-04-21 09:34:00,
2013-04-21 05:39:00,37.0,27.9,30.48,ENE,57,1.0,7.0,69,0.00,,,0.00,0.0,meteohub,2013-04-21 09:39:00,
2013-04-21 05:44:00,36.9,27.7,30.48,ENE,60,2.0,7.0,69,0.00,,,0.00,0.0,meteohub,2013-04-21 09:44:00,
2013-04-21 05:49:00,36.7,27.9,30.49,ENE,77,1.0,7.0,70,0.00,,,0.00,0.0,meteohub,2013-04-21 09:49:00,
2013-04-21 05:57:00,36.5,27.7,30.49,NE,41,2.0,6.0,70,0.00,,,0.00,0.0,meteohub,2013-04-21 09:57:00,
2013-04-21 06:02:00,36.5,27.7,30.49,East,80,1.0,8.0,70,0.00,,,0.00,0.0,meteohub,2013-04-21 10:02:00,
2013-04-21 06:07:00,36.3,27.9,30.49,East,95,3.0,8.0,71,0.00,,,0.00,0.0,meteohub,2013-04-21 10:07:00,
2013-04-21 06:12:00,36.3,27.9,30.49,ENE,58,1.0,8.0,71,0.00,,,0.00,0.0,meteohub,2013-04-21 10:12:00,
2013-04-21 06:17:00,36.1,27.7,30.49,ENE,63,1.0,6.0,71,0.00,,,0.00,0.0,meteohub,2013-04-21 10:17:00,
2013-04-21 06:22:00,36.0,27.5,30.50,East,83,1.0,6.0,71,0.00,,,0.00,0.0,meteohub,2013-04-21 10:22:00,
2013-04-21 06:27:00,36.0,27.5,30.50,East,101,2.0,6.0,71,0.00,,,0.00,0.0,meteohub,2013-04-21 10:27:00,
2013-04-21 06:32:00,35.8,27.7,30.50,East,85,2.0,7.0,72,0.00,,,0.00,0.0,meteohub,2013-04-21 10:32:00,
2013-04-21 06:37:00,35.8,27.7,30.50,ENE,61,2.0,7.0,72,0.00,,,0.00,0.0,meteohub,2013-04-21 10:37:00,
2013-04-21 06:42:00,35.6,27.5,30.51,NNE,18,3.0,7.0,72,0.00,,,0.00,0.0,meteohub,2013-04-21 10:42:00,
2013-04-21 06:47:00,35.8,27.7,30.51,NE,46,2.0,7.0,72,0.00,,,0.00,0.0,meteohub,2013-04-21 10:47:00,
2013-04-21 06:52:00,35.8,27.7,30.51,East,81,2.0,7.0,72,0.00,,,0.00,0.0,meteohub,2013-04-21 10:52:00,
2013-04-21 06:57:00,35.8,27.7,30.51,ENE,64,1.0,7.0,72,0.00,,,0.00,5.0,meteohub,2013-04-21 10:57:00,
2013-04-21 07:02:00,35.8,27.7,30.51,NE,43,4.0,7.0,72,0.00,,,0.00,7.0,meteohub,2013-04-21 11:02:00,
2013-04-21 07:07:00,35.8,27.7,30.51,NE,48,1.0,7.0,72,0.00,,,0.00,9.0,meteohub,2013-04-21 11:07:00,
2013-04-21 07:12:00,35.8,27.3,30.51,ENE,58,2.0,7.0,71,0.00,,,0.00,12.0,meteohub,2013-04-21 11:12:00,
2013-04-21 07:17:00,36.0,27.5,30.51,ESE,119,1.0,8.0,71,0.00,,,0.00,18.0,meteohub,2013-04-21 11:17:00,
2013-04-21 07:22:00,36.0,27.9,30.51,ENE,75,4.0,8.0,72,0.00,,,0.00,25.0,meteohub,2013-04-21 11:22:00,
2013-04-21 07:27:00,36.0,27.5,30.52,East,89,3.0,8.0,71,0.00,,,0.00,32.0,meteohub,2013-04-21 11:27:00,
2013-04-21 07:32:00,36.1,27.7,30.52,East,90,3.0,9.0,71,0.00,,,0.00,37.0,meteohub,2013-04-21 11:32:00,
2013-04-21 07:37:00,36.3,27.9,30.52,NNE,33,3.0,9.0,71,0.00,,,0.00,42.0,meteohub,2013-04-21 11:37:00,
2013-04-21 07:42:00,36.7,27.9,30.52,NE,55,5.0,9.0,70,0.00,,,0.00,46.0,meteohub,2013-04-21 11:42:00,
2013-04-21 07:48:00,36.9,28.0,30.53,ENE,61,1.0,9.0,70,0.00,,,0.00,47.0,meteohub,2013-04-21 11:48:00,
2013-04-21 07:53:00,37.0,28.2,30.53,ENE,74,3.0,9.0,70,0.00,,,0.00,116.0,meteohub,2013-04-21 11:53:00,
2013-04-21 07:58:00,37.6,28.4,30.53,NE,43,4.0,13.0,69,0.00,,,0.00,134.0,meteohub,2013-04-21 11:58:00,
2013-04-21 08:03:00,38.1,28.2,30.53,East,81,2.0,13.0,67,0.00,,,0.00,151.0,meteohub,2013-04-21 12:03:00,
2013-04-21 08:08:00,38.7,28.6,30.53,ENE,64,5.0,13.0,67,0.00,,,0.00,155.0,meteohub,2013-04-21 12:08:00,
2013-04-21 08:13:00,38.8,28.8,30.53,NE,50,3.0,11.0,67,0.00,,,0.00,137.0,meteohub,2013-04-21 12:13:00,
2013-04-21 08:18:00,39.2,28.8,30.54,NE,44,6.0,11.0,66,0.00,,,0.00,190.0,meteohub,2013-04-21 12:18:00,
2013-04-21 08:24:00,39.4,28.6,30.54,NNE,27,1.0,9.0,65,0.00,,,0.00,218.0,meteohub,2013-04-21 12:24:00,
2013-04-21 08:29:00,39.9,29.1,30.53,East,96,3.0,10.0,65,0.00,,,0.00,258.0,meteohub,2013-04-21 12:29:00,
2013-04-21 08:34:00,40.3,29.1,30.54,SSE,168,2.0,10.0,64,0.00,,,0.00,278.0,meteohub,2013-04-21 12:34:00,
2013-04-21 08:40:00,40.5,29.7,30.54,East,87,5.0,9.0,65,0.00,,,0.00,295.0,meteohub,2013-04-21 12:40:00,
2013-04-21 08:45:00,41.0,29.8,30.54,SE,129,1.0,9.0,64,0.00,,,0.00,315.0,meteohub,2013-04-21 12:45:00,
2013-04-21 08:50:00,41.5,29.5,30.53,East,82,3.0,9.0,62,0.00,,,0.00,322.0,meteohub,2013-04-21 12:50:00,
2013-04-21 08:55:00,41.7,30.4,30.53,ENE,66,10.0,10.0,64,0.00,,,0.00,330.0,meteohub,2013-04-21 12:55:00,
2013-04-21 09:00:00,42.3,29.8,30.54,ENE,64,4.0,10.0,61,0.00,,,0.00,327.0,meteohub,2013-04-21 13:00:00,
2013-04-21 09:05:00,42.3,29.8,30.54,NE,56,3.0,11.0,61,0.00,,,0.00,369.0,meteohub,2013-04-21 13:05:00,
2013-04-21 09:10:00,42.6,29.7,30.54,East,95,4.0,11.0,60,0.00,,,0.00,355.0,meteohub,2013-04-21 13:10:00,
2013-04-21 09:15:00,42.8,30.2,30.53,South,177,4.0,11.0,61,0.00,,,0.00,410.0,meteohub,2013-04-21 13:15:00,
2013-04-21 09:20:00,43.3,30.0,30.54,SE,131,4.0,10.0,59,0.00,,,0.00,443.0,meteohub,2013-04-21 13:20:00,
2013-04-21 09:25:00,44.1,30.7,30.54,NE,44,5.0,10.0,59,0.00,,,0.00,443.0,meteohub,2013-04-21 13:25:00,
2013-04-21 09:30:00,44.6,29.8,30.54,South,177,2.0,12.0,56,0.00,,,0.00,417.0,meteohub,2013-04-21 13:30:00,
2013-04-21 09:36:00,44.6,29.8,30.54,SSE,149,7.0,14.0,56,0.00,,,0.00,478.0,meteohub,2013-04-21 13:36:00,
2013-04-21 09:41:00,45.1,31.3,30.54,ENE,58,3.0,16.0,58,0.00,,,0.00,499.0,meteohub,2013-04-21 13:41:00,
2013-04-21 09:46:00,46.0,30.7,30.54,SE,133,4.0,16.0,55,0.00,,,0.00,522.0,meteohub,2013-04-21 13:46:00,
2013-04-21 09:51:00,46.2,30.9,30.53,ENE,71,3.0,10.0,55,0.00,,,0.00,540.0,meteohub,2013-04-21 13:51:00,
2013-04-21 09:56:00,46.6,31.6,30.53,SE,129,7.0,10.0,56,0.00,,,0.00,547.0,meteohub,2013-04-21 13:56:00,
2013-04-21 10:01:00,46.9,31.6,30.54,East,89,4.0,10.0,55,0.00,,,0.00,568.0,meteohub,2013-04-21 14:01:00,
2013-04-21 10:06:00,47.5,32.2,30.54,NE,51,2.0,10.0,55,0.00,,,0.00,570.0,meteohub,2013-04-21 14:06:00,
2013-04-21 10:12:00,47.8,30.6,30.53,East,96,11.0,11.0,51,0.00,,,0.00,610.0,meteohub,2013-04-21 14:12:00,
2013-04-21 10:17:00,47.8,31.1,30.53,ESE,102,6.0,13.0,52,0.00,,,0.00,622.0,meteohub,2013-04-21 14:17:00,
2013-04-21 10:22:00,48.0,31.3,30.53,ESE,120,2.0,14.0,52,0.00,,,0.00,610.0,meteohub,2013-04-21 14:22:00,
2013-04-21 10:27:00,48.4,32.0,30.53,SSE,149,8.0,14.0,53,0.00,,,0.00,656.0,meteohub,2013-04-21 14:27:00,
2013-04-21 10:32:00,48.7,32.9,30.53,ENE,58,3.0,14.0,54,0.00,,,0.00,650.0,meteohub,2013-04-21 14:32:00,
2013-04-21 10:37:00,49.3,31.5,30.53,SE,131,8.0,11.0,50,0.00,,,0.00,710.0,meteohub,2013-04-21 14:37:00,
2013-04-21 10:42:00,49.5,31.1,30.53,ESE,108,8.0,11.0,49,0.00,,,0.00,694.0,meteohub,2013-04-21 14:42:00,
2013-04-21 10:47:00,49.5,32.0,30.53,NE,55,1.0,13.0,51,0.00,,,0.00,717.0,meteohub,2013-04-21 14:47:00,
2013-04-21 10:52:00,50.2,31.8,30.53,ENE,73,5.0,13.0,49,0.00,,,0.00,712.0,meteohub,2013-04-21 14:52:00,
2013-04-21 10:57:00,50.2,31.8,30.53,East,89,0.0,14.0,49,0.00,,,0.00,645.0,meteohub,2013-04-21 14:57:00,
2013-04-21 11:02:00,50.5,33.6,30.53,East,95,7.0,14.0,52,0.00,,,0.00,752.0,meteohub,2013-04-21 15:02:00,
2013-04-21 11:07:00,50.5,32.5,30.53,East,98,8.0,14.0,50,0.00,,,0.00,793.0,meteohub,2013-04-21 15:07:00,
2013-04-21 11:12:00,50.7,32.7,30.53,SE,139,3.0,12.0,50,0.00,,,0.00,735.0,meteohub,2013-04-21 15:12:00,
2013-04-21 11:17:00,51.1,32.5,30.53,SW,228,3.0,12.0,49,0.00,,,0.00,714.0,meteohub,2013-04-21 15:17:00,
2013-04-21 11:22:00,51.1,32.5,30.53,West,274,1.0,11.0,49,0.00,,,0.00,686.0,meteohub,2013-04-21 15:22:00,
2013-04-21 11:27:00,51.3,32.7,30.53,East,83,4.0,11.0,49,0.00,,,0.00,717.0,meteohub,2013-04-21 15:27:00,
2013-04-21 11:32:00,51.6,33.1,30.53,East,91,7.0,12.0,49,0.00,,,0.00,784.0,meteohub,2013-04-21 15:32:00,
2013-04-21 11:37:00,52.3,35.2,30.53,East,87,5.0,12.0,52,0.00,,,0.00,838.0,meteohub,2013-04-21 15:37:00,
2013-04-21 11:42:00,52.3,32.7,30.53,ENE,62,2.0,9.0,47,0.00,,,0.00,851.0,meteohub,2013-04-21 15:42:00,
2013-04-21 11:47:00,52.2,33.6,30.53,SSE,151,2.0,10.0,49,0.00,,,0.00,756.0,meteohub,2013-04-21 15:47:00,
2013-04-21 11:52:00,52.5,32.4,30.53,East,91,2.0,10.0,46,0.00,,,0.00,844.0,meteohub,2013-04-21 15:52:00,
2013-04-21 11:57:00,52.9,35.2,30.53,ESE,105,6.0,10.0,51,0.00,,,0.00,870.0,meteohub,2013-04-21 15:57:00,
2013-04-21 12:02:00,53.4,35.8,30.52,SSE,166,5.0,9.0,51,0.00,,,0.00,826.0,meteohub,2013-04-21 16:02:00,
2013-04-21 12:07:00,53.2,32.4,30.52,SE,135,4.0,8.0,45,0.00,,,0.00,891.0,meteohub,2013-04-21 16:07:00,
2013-04-21 12:12:00,53.6,33.3,30.52,SSE,168,5.0,10.0,46,0.00,,,0.00,902.0,meteohub,2013-04-21 16:12:00,
2013-04-21 12:17:00,53.8,34.5,30.52,ENE,75,4.0,11.0,48,0.00,,,0.00,881.0,meteohub,2013-04-21 16:17:00,
2013-04-21 12:23:00,54.0,35.8,30.52,East,93,3.0,11.0,50,0.00,,,0.00,895.0,meteohub,2013-04-21 16:23:00,
2013-04-21 12:28:00,54.0,35.8,30.52,ENE,68,1.0,11.0,50,0.00,,,0.00,902.0,meteohub,2013-04-21 16:28:00,
2013-04-21 12:33:00,54.0,34.7,30.51,NNE,32,2.0,9.0,48,0.00,,,0.00,905.0,meteohub,2013-04-21 16:33:00,
2013-04-21 12:38:00,54.9,36.5,30.51,SE,139,3.0,9.0,50,0.00,,,0.00,914.0,meteohub,2013-04-21 16:38:00,
2013-04-21 12:43:00,54.7,33.3,30.51,SSE,150,6.0,11.0,44,0.00,,,0.00,918.0,meteohub,2013-04-21 16:43:00,
2013-04-21 12:48:00,54.5,34.2,30.50,SE,130,4.0,11.0,46,0.00,,,0.00,916.0,meteohub,2013-04-21 16:48:00,
2013-04-21 12:53:00,54.7,34.9,30.50,ENE,58,3.0,11.0,47,0.00,,,0.00,925.0,meteohub,2013-04-21 16:53:00,
2013-04-21 12:58:00,55.2,36.0,30.49,NE,36,5.0,11.0,48,0.00,,,0.00,930.0,meteohub,2013-04-21 16:58:00,
2013-04-21 13:03:00,55.2,36.3,30.49,NE,43,5.0,10.0,49,0.00,,,0.00,935.0,meteohub,2013-04-21 17:03:00,
2013-04-21 13:08:00,54.7,33.3,30.49,ENE,58,5.0,10.0,44,0.00,,,0.00,939.0,meteohub,2013-04-21 17:08:00,
2013-04-21 13:14:00,55.0,36.7,30.49,ENE,63,4.0,14.0,50,0.00,,,0.00,933.0,meteohub,2013-04-21 17:14:00,
2013-04-21 13:19:00,56.1,34.5,30.48,East,83,5.0,14.0,44,0.00,,,0.00,939.0,meteohub,2013-04-21 17:19:00,
2013-04-21 13:24:00,55.2,33.1,30.48,SSE,149,6.0,11.0,43,0.00,,,0.00,947.0,meteohub,2013-04-21 17:24:00,
2013-04-21 13:29:00,56.1,37.2,30.48,ESE,122,4.0,11.0,49,0.00,,,0.00,942.0,meteohub,2013-04-21 17:29:00,
2013-04-21 13:34:00,56.3,34.2,30.47,SE,125,3.0,11.0,43,0.00,,,0.00,939.0,meteohub,2013-04-21 17:34:00,
2013-04-21 13:39:00,56.1,35.1,30.47,NNE,31,3.0,9.0,45,0.00,,,0.00,939.0,meteohub,2013-04-21 17:39:00,
2013-04-21 13:44:00,56.7,36.1,30.47,NNE,12,2.0,9.0,46,0.00,,,0.00,944.0,meteohub,2013-04-21 17:44:00,
2013-04-21 13:49:00,56.8,35.8,30.46,NE,56,4.0,10.0,45,0.00,,,0.00,944.0,meteohub,2013-04-21 17:49:00,
2013-04-21 13:54:00,56.5,34.9,30.46,NNE,25,2.0,10.0,44,0.00,,,0.00,942.0,meteohub,2013-04-21 17:54:00,
2013-04-21 14:13:00,56.8,34.0,30.48,SSE,150,1.0,10.0,42,0.00,,,0.00,944.0,meteohub,2013-04-21 18:13:00,
2013-04-21 14:18:00,57.6,34.7,30.48,South,175,4.0,10.0,42,0.00,,,0.00,933.0,meteohub,2013-04-21 18:18:00,
2013-04-21 14:23:00,57.4,34.5,30.48,East,86,6.0,10.0,42,0.00,,,0.00,970.0,meteohub,2013-04-21 18:23:00,
2013-04-21 14:28:00,57.6,35.8,30.48,NE,54,8.0,10.0,44,0.00,,,0.00,944.0,meteohub,2013-04-21 18:28:00,
2013-04-21 14:33:00,57.2,33.6,30.47,NE,45,2.0,11.0,41,0.00,,,0.00,995.0,meteohub,2013-04-21 18:33:00,
2013-04-21 14:38:00,57.2,34.9,30.47,ENE,66,3.0,11.0,43,0.00,,,0.00,802.0,meteohub,2013-04-21 18:38:00,
2013-04-21 14:43:00,57.9,34.3,30.47,North,10,0.0,12.0,41,0.00,,,0.00,591.0,meteohub,2013-04-21 18:43:00,
2013-04-21 14:48:00,57.2,33.6,30.47,ENE,60,3.0,12.0,41,0.00,,,0.00,633.0,meteohub,2013-04-21 18:48:00,
2013-04-21 14:53:00,56.5,33.1,30.47,ENE,62,5.0,9.0,41,0.00,,,0.00,571.0,meteohub,2013-04-21 18:53:00,
2013-04-21 14:58:00,56.1,32.2,30.47,SSE,163,4.0,9.0,40,0.00,,,0.00,722.0,meteohub,2013-04-21 18:58:00,
2013-04-21 15:04:00,57.2,34.3,30.46,ENE,75,7.0,10.0,42,0.00,,,0.00,844.0,meteohub,2013-04-21 19:04:00,
2013-04-21 15:09:00,57.6,32.7,30.46,East,87,3.0,10.0,39,0.00,,,0.00,879.0,meteohub,2013-04-21 19:09:00,
2013-04-21 15:14:00,57.4,32.0,30.46,NE,50,4.0,10.0,38,0.00,,,0.00,411.0,meteohub,2013-04-21 19:14:00,
2013-04-21 15:19:00,56.7,33.8,30.46,East,88,0.0,10.0,42,0.00,,,0.00,424.0,meteohub,2013-04-21 19:19:00,
2013-04-21 15:24:00,56.7,31.3,30.46,ESE,112,3.0,8.0,38,0.00,,,0.00,489.0,meteohub,2013-04-21 19:24:00,
2013-04-21 15:29:00,57.6,32.7,30.45,ESE,112,2.0,8.0,39,0.00,,,0.00,628.0,meteohub,2013-04-21 19:29:00,
2013-04-21 15:34:00,57.7,32.4,30.45,SSE,155,6.0,8.0,38,0.00,,,0.00,960.0,meteohub,2013-04-21 19:34:00,
2013-04-21 15:39:00,58.3,33.4,30.45,ENE,77,4.0,8.0,39,0.00,,,0.00,969.0,meteohub,2013-04-21 19:39:00,
2013-04-21 15:44:00,58.8,34.0,30.44,East,99,1.0,11.0,39,0.00,,,0.00,872.0,meteohub,2013-04-21 19:44:00,
2013-04-21 15:50:00,58.6,31.8,30.44,NE,41,2.0,11.0,36,0.00,,,0.00,874.0,meteohub,2013-04-21 19:50:00,
2013-04-21 15:55:00,59.5,34.0,30.44,ENE,72,5.0,11.0,38,0.00,,,0.00,796.0,meteohub,2013-04-21 19:55:00,
2013-04-21 16:00:00,59.0,34.2,30.43,ENE,70,3.0,8.0,39,0.00,,,0.00,584.0,meteohub,2013-04-21 20:00:00,
2013-04-21 16:05:00,58.3,32.7,30.43,ENE,77,2.0,11.0,38,0.00,,,0.00,594.0,meteohub,2013-04-21 20:05:00,
2013-04-21 16:10:00,58.5,32.9,30.43,ESE,113,1.0,11.0,38,0.00,,,0.00,733.0,meteohub,2013-04-21 20:10:00,
2013-04-21 16:15:00,58.5,34.2,30.43,ENE,77,4.0,12.0,40,0.00,,,0.00,740.0,meteohub,2013-04-21 20:15:00,
2013-04-21 16:20:00,58.6,35.1,30.43,East,83,2.0,12.0,41,0.00,,,0.00,747.0,meteohub,2013-04-21 20:20:00,
2013-04-21 16:25:00,58.8,32.0,30.43,East,101,5.0,12.0,36,0.00,,,0.00,691.0,meteohub,2013-04-21 20:25:00,
2013-04-21 16:30:00,58.8,32.5,30.42,South,182,1.0,11.0,37,0.00,,,0.00,733.0,meteohub,2013-04-21 20:30:00,
2013-04-21 16:35:00,58.6,30.4,30.42,SE,137,4.0,11.0,34,0.00,,,0.00,714.0,meteohub,2013-04-21 20:35:00,
2013-04-21 16:41:00,59.4,33.1,30.42,SSE,152,7.0,12.0,37,0.00,,,0.00,615.0,meteohub,2013-04-21 20:41:00,
2013-04-21 16:46:00,58.8,31.3,30.42,WNW,296,0.0,12.0,35,0.00,,,0.00,601.0,meteohub,2013-04-21 20:46:00,
2013-04-21 16:51:00,59.2,32.9,30.42,SE,141,2.0,12.0,37,0.00,,,0.00,529.0,meteohub,2013-04-21 20:51:00,
2013-04-21 16:56:00,58.8,32.0,30.42,ESE,102,0.0,11.0,36,0.00,,,0.00,624.0,meteohub,2013-04-21 20:56:00,
2013-04-21 17:01:00,59.0,32.7,30.42,ENE,65,2.0,11.0,37,0.00,,,0.00,645.0,meteohub,2013-04-21 21:01:00,
2013-04-21 17:06:00,60.1,33.8,30.41,NE,41,5.0,10.0,37,0.00,,,0.00,650.0,meteohub,2013-04-21 21:06:00,
2013-04-21 17:11:00,59.7,34.0,30.41,ENE,74,1.0,10.0,38,0.00,,,0.00,596.0,meteohub,2013-04-21 21:11:00,
2013-04-21 17:16:00,59.2,32.2,30.41,ENE,77,3.0,8.0,36,0.00,,,0.00,533.0,meteohub,2013-04-21 21:16:00,
2013-04-21 17:21:00,59.7,34.0,30.41,ENE,71,7.0,7.0,38,0.00,,,0.00,499.0,meteohub,2013-04-21 21:21:00,
2013-04-21 17:26:00,59.4,32.4,30.41,NNE,21,2.0,7.0,36,0.00,,,0.00,478.0,meteohub,2013-04-21 21:26:00,
2013-04-21 17:32:00,59.4,31.6,30.41,SE,140,4.0,7.0,35,0.00,,,0.00,478.0,meteohub,2013-04-21 21:32:00,
2013-04-21 17:37:00,59.4,30.9,30.41,ESE,116,5.0,10.0,34,0.00,,,0.00,441.0,meteohub,2013-04-21 21:37:00,
2013-04-21 17:42:00,59.4,31.6,30.41,ENE,60,7.0,10.0,35,0.00,,,0.00,408.0,meteohub,2013-04-21 21:42:00,
2013-04-21 17:47:00,58.6,33.1,30.41,NE,45,2.0,10.0,38,0.00,,,0.00,294.0,meteohub,2013-04-21 21:47:00,
2013-04-21 17:52:00,58.6,32.4,30.41,SSE,158,3.0,9.0,37,0.00,,,0.00,295.0,meteohub,2013-04-21 21:52:00,
2013-04-21 17:57:00,58.6,33.1,30.41,East,88,1.0,9.0,38,0.00,,,0.00,387.0,meteohub,2013-04-21 21:57:00,
2013-04-21 18:02:00,58.8,32.5,30.41,SE,139,1.0,6.0,37,0.00,,,0.00,290.0,meteohub,2013-04-21 22:02:00,
2013-04-21 18:07:00,59.2,32.9,30.41,SE,129,1.0,6.0,37,0.00,,,0.00,346.0,meteohub,2013-04-21 22:07:00,
2013-04-21 18:12:00,59.2,32.9,30.41,SE,146,2.0,6.0,37,0.00,,,0.00,260.0,meteohub,2013-04-21 22:12:00,
2013-04-21 18:17:00,58.6,32.4,30.40,ENE,76,6.0,6.0,37,0.00,,,0.00,239.0,meteohub,2013-04-21 22:17:00,
2013-04-21 18:22:00,58.1,30.6,30.40,SSE,149,1.0,6.0,35,0.00,,,0.00,237.0,meteohub,2013-04-21 22:22:00,
2013-04-21 18:27:00,58.3,32.7,30.40,ENE,67,1.0,6.0,38,0.00,,,0.00,313.0,meteohub,2013-04-21 22:27:00,
2013-04-21 18:32:00,58.5,32.9,30.40,NE,51,6.0,8.0,38,0.00,,,0.00,294.0,meteohub,2013-04-21 22:32:00,
2013-04-21 18:37:00,58.3,32.7,30.40,ENE,78,4.0,8.0,38,0.00,,,0.00,288.0,meteohub,2013-04-21 22:37:00,
2013-04-21 18:42:00,57.9,31.8,30.40,ENE,77,1.0,10.0,37,0.00,,,0.00,156.0,meteohub,2013-04-21 22:42:00,
2013-04-21 18:47:00,57.7,32.4,30.40,ENE,58,7.0,10.0,38,0.00,,,0.00,135.0,meteohub,2013-04-21 22:47:00,
2013-04-21 18:52:00,57.2,32.5,30.40,NE,49,3.0,10.0,39,0.00,,,0.00,127.0,meteohub,2013-04-21 22:52:00,
2013-04-21 18:57:00,57.0,32.9,30.40,ENE,77,0.0,8.0,40,0.00,,,0.00,128.0,meteohub,2013-04-21 22:57:00,
2013-04-21 19:02:00,57.0,32.4,30.40,ENE,68,0.0,7.0,39,0.00,,,0.00,90.0,meteohub,2013-04-21 23:02:00,
2013-04-21 19:08:00,57.0,32.4,30.40,ENE,62,2.0,7.0,39,0.00,,,0.00,88.0,meteohub,2013-04-21 23:08:00,
2013-04-21 19:13:00,56.8,32.2,30.40,NE,42,2.0,7.0,39,0.00,,,0.00,88.0,meteohub,2013-04-21 23:13:00,
2013-04-21 19:18:00,56.7,32.0,30.40,ENE,66,2.0,7.0,39,0.00,,,0.00,98.0,meteohub,2013-04-21 23:18:00,
2013-04-21 19:23:00,56.5,32.4,30.40,NE,34,2.0,7.0,40,0.00,,,0.00,107.0,meteohub,2013-04-21 23:23:00,
2013-04-21 19:28:00,56.3,32.9,30.40,NE,52,2.0,7.0,41,0.00,,,0.00,74.0,meteohub,2013-04-21 23:28:00,
2013-04-21 19:33:00,56.1,32.2,30.40,NE,46,1.0,6.0,40,0.00,,,0.00,54.0,meteohub,2013-04-21 23:33:00,
2013-04-21 19:38:00,55.9,32.5,30.40,NE,46,3.0,6.0,41,0.00,,,0.00,44.0,meteohub,2013-04-21 23:38:00,
2013-04-21 20:10:00,54.1,30.4,30.40,NNE,16,2.0,6.0,40,0.00,,,0.00,9.0,meteohub,2013-04-22 00:10:00,
2013-04-21 20:15:00,53.8,30.6,30.40,North,0,0.0,3.0,41,0.00,,,0.00,5.0,meteohub,2013-04-22 00:15:00,
2013-04-21 20:20:00,53.6,30.4,30.41,North,349,0.0,3.0,41,0.00,,,0.00,0.0,meteohub,2013-04-22 00:20:00,
2013-04-21 20:25:00,53.4,30.4,30.41,North,11,1.0,3.0,41,0.00,,,0.00,0.0,meteohub,2013-04-22 00:25:00,
2013-04-21 20:30:00,53.1,30.6,30.41,North,357,0.0,3.0,42,0.00,,,0.00,0.0,meteohub,2013-04-22 00:30:00,
2013-04-21 20:36:00,52.9,30.4,30.41,NNE,18,1.0,3.0,42,0.00,,,0.00,0.0,meteohub,2013-04-22 00:36:00,
2013-04-21 20:41:00,52.7,30.2,30.41,North,5,2.0,3.0,42,0.00,,,0.00,0.0,meteohub,2013-04-22 00:41:00,
2013-04-21 20:46:00,52.5,30.0,30.41,North,2,2.0,4.0,42,0.00,,,0.00,0.0,meteohub,2013-04-22 00:46:00,
2013-04-21 20:51:00,52.3,29.8,30.41,NNE,18,3.0,4.0,42,0.00,,,0.00,0.0,meteohub,2013-04-22 00:51:00,
2013-04-21 20:56:00,52.2,29.8,30.41,NNE,17,0.0,4.0,42,0.00,,,0.00,0.0,meteohub,2013-04-22 00:56:00,
2013-04-21 21:02:00,52.2,29.8,30.41,North,9,1.0,4.0,42,0.00,,,0.00,0.0,meteohub,2013-04-22 01:02:00,
2013-04-21 21:07:00,52.0,30.2,30.41,NNE,12,0.0,3.0,43,0.00,,,0.00,0.0,meteohub,2013-04-22 01:07:00,
2013-04-21 21:12:00,51.8,30.0,30.41,NNE,18,1.0,3.0,43,0.00,,,0.00,0.0,meteohub,2013-04-22 01:12:00,
2013-04-21 21:17:00,51.8,30.0,30.41,NNE,24,2.0,3.0,43,0.00,,,0.00,0.0,meteohub,2013-04-22 01:17:00,
2013-04-21 21:22:00,51.6,30.4,30.41,North,-999,-999.0,3.0,44,0.00,,,0.00,0.0,meteohub,2013-04-22 01:22:00,
2013-04-21 21:27:00,51.4,30.2,30.42,NE,45,1.0,3.0,44,0.00,,,0.00,0.0,meteohub,2013-04-22 01:27:00,
2013-04-21 21:32:00,51.3,30.0,30.42,NNE,22,0.0,3.0,44,0.00,,,0.00,0.0,meteohub,2013-04-22 01:32:00,
2013-04-21 21:37:00,51.1,30.6,30.42,NE,38,2.0,3.0,45,0.00,,,0.00,0.0,meteohub,2013-04-22 01:37:00,
2013-04-21 21:42:00,51.1,30.6,30.42,North,359,3.0,5.0,45,0.00,,,0.00,0.0,meteohub,2013-04-22 01:42:00,
2013-04-21 21:47:00,50.7,30.2,30.43,NNE,28,1.0,5.0,45,0.00,,,0.00,0.0,meteohub,2013-04-22 01:47:00,
2013-04-21 21:52:00,50.7,30.2,30.43,NNE,14,0.0,5.0,45,0.00,,,0.00,0.0,meteohub,2013-04-22 01:52:00,
2013-04-21 21:57:00,50.5,30.0,30.43,North,5,1.0,4.0,45,0.00,,,0.00,0.0,meteohub,2013-04-22 01:57:00,
2013-04-21 22:02:00,50.4,30.4,30.43,NNE,33,3.0,4.0,46,0.00,,,0.00,0.0,meteohub,2013-04-22 02:02:00,
2013-04-21 22:07:00,50.2,30.2,30.43,NNE,15,0.0,4.0,46,0.00,,,0.00,0.0,meteohub,2013-04-22 02:07:00,
2013-04-21 22:12:00,50.2,30.2,30.43,NE,40,1.0,4.0,46,0.00,,,0.00,0.0,meteohub,2013-04-22 02:12:00,
2013-04-21 22:17:00,49.8,29.8,30.43,NE,36,2.0,4.0,46,0.00,,,0.00,0.0,meteohub,2013-04-22 02:17:00,
2013-04-21 22:22:00,49.6,30.2,30.43,NNE,22,2.0,4.0,47,0.00,,,0.00,0.0,meteohub,2013-04-22 02:22:00,
2013-04-21 22:27:00,49.5,30.0,30.43,NNE,24,1.0,5.0,47,0.00,,,0.00,0.0,meteohub,2013-04-22 02:27:00,
2013-04-21 22:32:00,49.5,30.0,30.43,NE,41,1.0,5.0,47,0.00,,,0.00,0.0,meteohub,2013-04-22 02:32:00,
2013-04-21 22:37:00,49.3,30.4,30.43,NNE,20,3.0,5.0,48,0.00,,,0.00,0.0,meteohub,2013-04-22 02:37:00,
2013-04-21 22:42:00,49.3,30.4,30.43,NNE,32,2.0,5.0,48,0.00,,,0.00,0.0,meteohub,2013-04-22 02:42:00,
2013-04-21 22:47:00,49.3,30.4,30.43,NNE,25,2.0,4.0,48,0.00,,,0.00,0.0,meteohub,2013-04-22 02:47:00,
2013-04-21 22:52:00,49.1,30.2,30.43,NE,38,1.0,4.0,48,0.00,,,0.00,0.0,meteohub,2013-04-22 02:52:00,
2013-04-21 22:57:00,48.9,30.0,30.43,NNE,23,0.0,5.0,48,0.00,,,0.00,0.0,meteohub,2013-04-22 02:57:00,
2013-04-21 23:03:00,48.9,29.7,30.43,NE,46,2.0,5.0,47,0.00,,,0.00,0.0,meteohub,2013-04-22 03:03:00,
2013-04-21 23:08:00,48.9,29.7,30.43,NE,38,0.0,6.0,47,0.00,,,0.00,0.0,meteohub,2013-04-22 03:08:00,
2013-04-21 23:13:00,48.7,29.5,30.43,NE,35,2.0,6.0,47,0.00,,,0.00,0.0,meteohub,2013-04-22 03:13:00,
2013-04-21 23:18:00,48.7,29.5,30.43,NNE,16,0.0,6.0,47,0.00,,,0.00,0.0,meteohub,2013-04-22 03:18:00,
2013-04-21 23:24:00,48.7,29.8,30.43,NE,42,1.0,6.0,48,0.00,,,0.00,0.0,meteohub,2013-04-22 03:24:00,
2013-04-21 23:29:00,48.6,29.3,30.43,NE,39,2.0,6.0,47,0.00,,,0.00,0.0,meteohub,2013-04-22 03:29:00,
2013-04-21 23:34:00,48.6,29.8,30.43,NNE,20,3.0,6.0,48,0.00,,,0.00,0.0,meteohub,2013-04-22 03:34:00,
2013-04-21 23:40:00,48.4,29.1,30.43,NE,48,0.0,6.0,47,0.00,,,0.00,0.0,meteohub,2013-04-22 03:40:00,
2013-04-21 23:45:00,48.4,29.1,30.43,ESE,103,2.0,6.0,47,0.00,,,0.00,0.0,meteohub,2013-04-22 03:45:00,
2013-04-21 23:50:00,48.4,29.7,30.43,NNE,28,3.0,5.0,48,0.00,,,0.00,0.0,meteohub,2013-04-22 03:50:00,
2013-04-21 23:55:00,48.0,29.3,30.43,East,94,0.0,5.0,48,0.00,,,0.00,0.0,meteohub,2013-04-22 03:55:00,